This is the latest recevied weather packets stored in our database for station/object W1LBM. If no packets are shown the sender has not sent any weather packets the latest 10 day(s).
| Time | Temp. | Humidity | Pressure | Rain* | Wind** | Luminosity | Snow |
|---|---|---|---|---|---|---|---|
| 1777875059 | 4.44° C | 67% | 1013.7 hPa | 0 mm | - | 0 W/m² | - |
| 1777874755 | 4.44° C | 68% | 1013.9 hPa | 0 mm | - | 0 W/m² | - |
| 1777874451 | 4.44° C | 67% | 1013.8 hPa | 0 mm | - | 0 W/m² | - |
| 1777874150 | 4.44° C | 68% | 1014 hPa | 0 mm | - | 0 W/m² | - |
| 1777873847 | 5° C | 66% | 1013.9 hPa | 0 mm | - | 0 W/m² | - |
| 1777873543 | 5° C | 65% | 1013.9 hPa | 0 mm | - | 0 W/m² | - |
| 1777873241 | 5° C | 64% | 1013.9 hPa | 0 mm | - | 0 W/m² | - |
| 1777872937 | 5° C | 63% | 1013.7 hPa | 0 mm | - | 0 W/m² | - |
| 1777872635 | 5° C | 65% | 1014 hPa | 0 mm | - | 0 W/m² | - |
| 1777872332 | 5° C | 66% | 1013.9 hPa | 0 mm | - | 0 W/m² | - |
| 1777872030 | 5° C | 65% | 1013.9 hPa | 0 mm | - | 0 W/m² | - |
| 1777871726 | 4.44° C | 66% | 1013.9 hPa | 0 mm | - | 0 W/m² | - |
| 1777871423 | 4.44° C | 67% | 1014 hPa | 0 mm | - | 0 W/m² | - |
| 1777871120 | 4.44° C | 68% | 1014 hPa | 0 mm | - | 0 W/m² | - |
| 1777870817 | 4.44° C | 66% | 1014.1 hPa | 0 mm | - | 0 W/m² | - |
| 1777870513 | 3.89° C | 67% | 1014 hPa | 0 mm | - | 0 W/m² | - |
| 1777870209 | 3.89° C | 67% | 1014.1 hPa | 0 mm | - | 0 W/m² | - |
| 1777869906 | 3.89° C | 68% | 1014.1 hPa | 0 mm | - | 0 W/m² | - |
| 1777869603 | 3.33° C | 68% | 1014.2 hPa | 0 mm | - | 0 W/m² | - |
| 1777869300 | 3.89° C | 67% | 1014 hPa | 0 mm | - | 0 W/m² | - |
| 1777868998 | 3.89° C | 67% | 1013.9 hPa | 0 mm | - | 0 W/m² | - |
| 1777868694 | 3.89° C | 69% | 1013.8 hPa | 0 mm | - | 0 W/m² | - |
| 1777868391 | 3.33° C | 71% | 1013.9 hPa | 0 mm | - | 0 W/m² | - |
| 1777868087 | 2.78° C | 72% | 1014 hPa | 0 mm | - | 0 W/m² | - |
| 1777867783 | 2.78° C | 71% | 1014 hPa | 0 mm | - | 0 W/m² | - |
* Rain latest hour (hover to see other rain measurements)
** Current wind speed in m/s (hover to see current wind gust speed)